Location: D�derode
(51.8092°N, 10.1065°E)
Time: 21:48:04
(UTC+00:00)

Cosmos 1842 Rocket - Visible Passes

Search period start: 10 April 2021 00:00
Search period end: 20 April 2021 00:00
Orbit: 606 x 633 km, 82.5° (Epoch: 09 April)

Date Brightness Start Highest point End Pass type
(mag) Time Alt. Az. Time Alt. Az. Time Alt. Az.
10 Apr 5.5 00:06:45 22° NW 00:06:45 22° NW 00:09:28 10° NNW visible
10 Apr 4.8 22:46:48 39° NNE 22:46:48 39° NNE 22:49:39 10° NNE visible
11 Apr 5.9 00:23:56 15° WNW 00:23:56 15° WNW 00:26:18 10° NNW visible
11 Apr 5.7 21:26:51 15° ENE 21:26:51 15° ENE 21:28:18 10° NE visible
11 Apr 4.7 23:03:59 42° NNW 23:03:59 42° NNW 23:07:09 10° N visible
12 Apr 5.2 21:44:01 24° NE 21:44:01 24° NE 21:46:25 10° NNE visible
12 Apr 5.0 23:21:10 33° NW 23:21:10 33° NW 23:24:29 10° N visible
13 Apr 4.6 22:01:11 38° NE 22:01:11 38° NE 22:04:15 10° NNE visible
13 Apr 5.5 23:38:19 22° WNW 23:38:19 22° WNW 23:41:38 10° NNW visible
14 Apr 5.9 20:41:11 11° ENE 20:41:11 11° ENE 20:41:45 10° ENE visible
14 Apr 4.1 22:18:19 56° NNE 22:18:19 56° NNE 22:21:52 10° NNE visible
14 Apr 6.0 23:55:28 14° WNW 23:55:58 14° WNW 23:58:25 10° NNW visible
15 Apr 5.4 20:58:18 18° ENE 20:58:18 18° ENE 21:00:37 10° NE visible
15 Apr 4.2 22:35:27 52° NW 22:35:27 52° NW 22:39:21 10° N visible
16 Apr 4.7 21:15:25 30° ENE 21:15:25 30° ENE 21:18:42 10° NNE visible
16 Apr 4.9 22:52:33 33° WNW 22:52:36 33° WNW 22:56:40 10° N visible
17 Apr 3.9 21:32:30 51° ENE 21:32:30 51° ENE 21:36:29 10° NNE visible
17 Apr 5.5 23:09:39 21° WNW 23:10:21 21° WNW 23:13:47 10° NNW visible
18 Apr 5.6 20:12:27 12° E 20:12:27 12° E 20:14:15 10° NE visible
18 Apr 3.4 21:49:34 89° SW 21:49:35 89° WNW 21:54:05 10° N visible
18 Apr 6.1 23:26:42 12° W 23:28:12 14° WNW 23:30:31 10° NNW visible
19 Apr 5.1 20:29:29 20° E 20:29:38 20° E 20:32:55 10° NE visible
19 Apr 4.1 22:06:37 49° WSW 22:07:09 53° WNW 22:11:33 10° N visible
